User: anonymous
Location: Unspecified
(0.0000°N, 0.0000°E)
Time: 07:45:56
(UTC+02:00)
Language:

ATLAS V CENTAUR R/B - Orbit

View from above orbital plane
View from above orbital plane
View from above satellite
View from above satellite

Ground track
Ground track

The orbit data is extracted from the following two-line orbital elements,

1 27500U 02038B   14212.06403946  .00017271  00000-0  21341-2 0  9428
2 27500 017.9664 248.7122 6969979 019.4862 111.0659 02.69887927 95993
Epoch (UTC): 31 July 2014 01:32:13
Eccentricity: 0.6969979
inclination: 17.9664°
perigee height: 224 km
apogee height: 30601 km
right ascension of ascending node: 248.7122°
argument of perigee: 19.4862°
revolutions per day: 2.69887927
mean anomaly at epoch: 111.0659°
orbit number at epoch: 9599

The dashed part of the orbit path shows where the satellite is in the earth's shadow,  

DLR